Location: Unspecified
(0.0000°N, 0.0000°E)
Time: 03:38:14
(UTC+00:00)

CZ-3C DEB - Pass Details

Date: 16 February 2026
Orbit: 408 x 32633 km, 21.5° (Epoch: 28 September)

Event Time Altitude Azimuth Distance (km) Brightness Sun altitude
Exits shadow 04:22:42 27° 298° (WNW) 13,168 ? -27.1°
Maximum altitude 06:24:43 52° 313° (NW) 28,924 ? 2.6°
Drops below altitude 10° 12:44:09 10° 134° (SE) 4,157 ? 75.7°
Sets 12:46:02 0° 128° (SE) 4,556 ? 75.4°
